Location: Newark
(54.4333°N, 18.5500°E)
Time: 16:50:50
(UTC+00:00)

Envisat - Pass Details

Date: 16 December 2019
Orbit: 764 x 766 km, 98.1° (Epoch: 22 January)

Event Time Altitude Azimuth Distance (km) Brightness Sun altitude
Rises 05:53:12 0° 15° (NNE) 3,248 6.1 -9.0°
Reaches altitude 10° 05:55:31 10° 15° (NNE) 2,317 5.4 -8.7°
Maximum altitude 06:00:39 89° 106° (ESE) 774 3.1 -8.1°
Drops below altitude 10° 06:05:44 10° 197° (SSW) 2,299 5.7 -7.4°
Sets 06:08:01 0° 197° (SSW) 3,221 6.4 -7.1°
